When you browse on this site, cookies collect data to enhance your experience and personalize the content and advertising you see.
Visit our Privacy Policy to learn more. By continuing to use the site, you agree to this use of cookies and data.
  • In Hungary
  • List of Countries
  • For 7 days
  • Water Temperature
  • Weather Map
  • News
  • Weather Widgets
  • user-avatar
    Login

    Hourly Weather Otrokovice

    Today, 21 August, Wednesday

    Time Temperature Precipitation Wind Pressure Humidity
    00:00 +22°C° 0.3 mm 1 mps 746 mmHg 89%
    01:00 +21°C° 0.3 mm 1 mps 747 mmHg 91%
    02:00 +21°C° 0.2 mm 1 mps 747 mmHg 92%
    03:00 +19°C° 0.2 mm 2 mps 748 mmHg 93%
    04:00 +19°C° 0.2 mm 2 mps 748 mmHg 94%
    05:00 +19°C° 0 mm 2 mps 749 mmHg 93%
    06:00 +19°C° 0 mm 3 mps 750 mmHg 91%
    07:00 +19°C° 0 mm 4 mps 750 mmHg 89%
    08:00 +19°C° 0 mm 4 mps 751 mmHg 86%
    09:00 +19°C° 0 mm 4 mps 751 mmHg 84%
    10:00 +19°C° 0 mm 5 mps 751 mmHg 81%
    11:00 +20°C° 0 mm 5 mps 752 mmHg 78%
    12:00 +20°C° 0 mm 5 mps 752 mmHg 74%
    13:00 +20°C° 0 mm 5 mps 752 mmHg 71%
    14:00 +20°C° 0 mm 5 mps 752 mmHg 70%
    15:00 +21°C° 0 mm 5 mps 751 mmHg 70%
    16:00 +21°C° 0 mm 5 mps 751 mmHg 69%
    17:00 +20°C° 0 mm 4 mps 751 mmHg 73%
    18:00 +19°C° 0 mm 4 mps 752 mmHg 76%
    19:00 +18°C° 0 mm 3 mps 752 mmHg 80%
    20:00 +17°C° 0 mm 3 mps 752 mmHg 82%
    21:00 +16°C° 0 mm 3 mps 752 mmHg 84%
    22:00 +16°C° 0 mm 3 mps 752 mmHg 86%
    23:00 +16°C° 0 mm 3 mps 752 mmHg 87%

    Tomorrow, 22 August, Thursday

    Time Temperature Precipitation Wind Pressure Humidity
    00:00 +14°C° 0 mm 3 mps 752 mmHg 88%
    01:00 +14°C° 0 mm 3 mps 752 mmHg 88%
    02:00 +14°C° 0 mm 3 mps 752 mmHg 89%
    03:00 +13°C° 0 mm 3 mps 752 mmHg 89%
    04:00 +13°C° 0 mm 3 mps 751 mmHg 89%
    05:00 +14°C° 0 mm 3 mps 751 mmHg 84%
    06:00 +15°C° 0 mm 4 mps 752 mmHg 79%
    07:00 +17°C° 0 mm 4 mps 752 mmHg 74%
    08:00 +19°C° 0 mm 4 mps 752 mmHg 69%
    09:00 +20°C° 0 mm 4 mps 752 mmHg 64%
    10:00 +22°C° 0 mm 4 mps 752 mmHg 58%
    11:00 +22°C° 0 mm 3 mps 752 mmHg 58%
    12:00 +24°C° 0 mm 3 mps 751 mmHg 58%
    13:00 +25°C° 0 mm 3 mps 751 mmHg 58%
    14:00 +25°C° 0.1 mm 3 mps 751 mmHg 59%
    15:00 +25°C° 0.1 mm 3 mps 751 mmHg 60%
    16:00 +25°C° 0.1 mm 3 mps 750 mmHg 61%
    17:00 +22°C° 0.1 mm 3 mps 750 mmHg 69%
    18:00 +21°C° 0.1 mm 2 mps 750 mmHg 76%
    19:00 +19°C° 0.1 mm 2 mps 750 mmHg 84%
    20:00 +18°C° 0 mm 2 mps 751 mmHg 85%
    21:00 +18°C° 0 mm 2 mps 751 mmHg 87%
    22:00 +18°C° 0 mm 1 mps 751 mmHg 89%
    23:00 +18°C° 0 mm 1 mps 751 mmHg 90%

    Day after tomorrow, 23 August, Friday

    Time Temperature Precipitation Wind Pressure Humidity
    00:00 +16°C° 0 mm 1 mps 751 mmHg 91%
    01:00 +16°C° 0 mm 1 mps 751 mmHg 92%
    02:00 +16°C° 0 mm 1 mps 751 mmHg 93%
    03:00 +15°C° 0 mm 1 mps 751 mmHg 94%
    04:00 +15°C° 0 mm 1 mps 751 mmHg 95%
    05:00 +16°C° 0 mm 2 mps 751 mmHg 91%
    06:00 +17°C° 0 mm 2 mps 751 mmHg 88%
    07:00 +18°C° 0 mm 2 mps 751 mmHg 84%
    08:00 +20°C° 0 mm 2 mps 751 mmHg 78%
    09:00 +23°C° 0 mm 2 mps 751 mmHg 71%
    10:00 +25°C° 0 mm 2 mps 751 mmHg 64%
    11:00 +26°C° 0 mm 2 mps 751 mmHg 60%
    12:00 +28°C° 0 mm 2 mps 751 mmHg 56%
    13:00 +29°C° 0 mm 2 mps 750 mmHg 52%
    14:00 +29°C° 0 mm 2 mps 750 mmHg 53%
    15:00 +29°C° 0 mm 2 mps 750 mmHg 54%
    16:00 +29°C° 0 mm 2 mps 749 mmHg 54%
    17:00 +27°C° 0 mm 2 mps 749 mmHg 63%
    18:00 +25°C° 0 mm 2 mps 749 mmHg 72%
    19:00 +23°C° 0 mm 2 mps 749 mmHg 81%
    20:00 +21°C° 0 mm 2 mps 749 mmHg 84%
    21:00 +20°C° 0 mm 2 mps 749 mmHg 87%
    22:00 +19°C° 0 mm 2 mps 750 mmHg 90%
    23:00 +20°C° 0 mm 1 mps 749 mmHg 91%

    24 August, Saturday

    Time Temperature Precipitation Wind Pressure Humidity
    00:00 +20°C° 0 mm 1 mps 749 mmHg 91%
    01:00 +20°C° 0 mm 1 mps 749 mmHg 92%
    02:00 +19°C° 0 mm 1 mps 749 mmHg 92%
    03:00 +19°C° 0 mm 1 mps 749 mmHg 93%
    04:00 +19°C° 0 mm 1 mps 748 mmHg 93%
    05:00 +20°C° 0 mm 1 mps 748 mmHg 89%
    06:00 +21°C° 0 mm 1 mps 748 mmHg 84%
    07:00 +22°C° 0 mm 1 mps 748 mmHg 80%
    08:00 +25°C° 0 mm 1 mps 749 mmHg 72%
    09:00 +27°C° 0 mm 1 mps 749 mmHg 64%
    10:00 +29°C° 0 mm 1 mps 749 mmHg 56%
    11:00 +30°C° 0 mm 2 mps 749 mmHg 52%
    12:00 +31°C° 0 mm 2 mps 748 mmHg 48%
    13:00 +32°C° 0 mm 2 mps 748 mmHg 45%
    14:00 +32°C° 0 mm 2 mps 748 mmHg 44%
    15:00 +32°C° 0 mm 2 mps 747 mmHg 44%
    16:00 +32°C° 0 mm 2 mps 747 mmHg 44%
    17:00 +30°C° 0 mm 2 mps 747 mmHg 51%
    18:00 +28°C° 0 mm 2 mps 747 mmHg 59%
    19:00 +26°C° 0 mm 1 mps 747 mmHg 66%
    20:00 +25°C° 0.2 mm 1 mps 747 mmHg 69%
    21:00 +24°C° 0.2 mm 1 mps 747 mmHg 72%
    22:00 +24°C° 0.2 mm 1 mps 747 mmHg 75%
    23:00 +23°C° 0.4 mm 1 mps 747 mmHg 78%

    25 August, Sunday

    Time Temperature Precipitation Wind Pressure Humidity
    00:00 +22°C° 0.4 mm 1 mps 747 mmHg 81%
    01:00 +22°C° 0.4 mm 1 mps 747 mmHg 83%
    02:00 +22°C° 0.1 mm 1 mps 746 mmHg 84%
    03:00 +21°C° 0.1 mm 1 mps 746 mmHg 85%
    04:00 +21°C° 0.1 mm 1 mps 746 mmHg 86%
    05:00 +22°C° 0.1 mm 1 mps 746 mmHg 83%
    06:00 +23°C° 0.1 mm 1 mps 747 mmHg 80%
    07:00 +24°C° 0.1 mm 1 mps 747 mmHg 78%
    08:00 +26°C° 0 mm 1 mps 747 mmHg 68%
    09:00 +29°C° 0 mm 1 mps 747 mmHg 59%
    10:00 +31°C° 0 mm 1 mps 747 mmHg 50%
    11:00 +32°C° 0 mm 1 mps 747 mmHg 46%
    12:00 +34°C° 0 mm 2 mps 747 mmHg 42%
    13:00 +35°C° 0 mm 2 mps 747 mmHg 38%
    14:00 +34°C° 0 mm 2 mps 747 mmHg 39%
    15:00 +34°C° 0 mm 2 mps 746 mmHg 40%
    16:00 +34°C° 0 mm 2 mps 746 mmHg 41%
    17:00 +31°C° 0.2 mm 2 mps 746 mmHg 49%
    18:00 +28°C° 0.2 mm 2 mps 746 mmHg 56%
    19:00 +26°C° 0.2 mm 2 mps 746 mmHg 64%
    20:00 +25°C° 0.1 mm 2 mps 746 mmHg 67%
    21:00 +24°C° 0.1 mm 1 mps 746 mmHg 71%
    22:00 +23°C° 0.1 mm 1 mps 747 mmHg 74%
    23:00 +23°C° 0.1 mm 1 mps 747 mmHg 75%

    26 August, Monday

    Time Temperature Precipitation Wind Pressure Humidity
    00:00 +22°C° 0.1 mm 1 mps 747 mmHg 77%
    01:00 +22°C° 0.1 mm 1 mps 747 mmHg 78%
    02:00 +22°C° 0.3 mm 1 mps 747 mmHg 80%
    03:00 +21°C° 0.3 mm 1 mps 747 mmHg 81%
    04:00 +21°C° 0.3 mm 1 mps 746 mmHg 83%
    05:00 +22°C° 0.5 mm 1 mps 747 mmHg 81%
    06:00 +23°C° 0.5 mm 1 mps 747 mmHg 79%
    07:00 +24°C° 0.5 mm 1 mps 747 mmHg 77%
    08:00 +26°C° 0 mm 1 mps 747 mmHg 70%
    09:00 +28°C° 0 mm 1 mps 748 mmHg 62%
    10:00 +30°C° 0 mm 1 mps 748 mmHg 55%
    11:00 +31°C° 0 mm 2 mps 748 mmHg 51%
    12:00 +32°C° 0 mm 2 mps 748 mmHg 47%
    13:00 +34°C° 0 mm 2 mps 748 mmHg 43%
    14:00 +34°C° 0 mm 2 mps 747 mmHg 43%
    15:00 +34°C° 0 mm 2 mps 747 mmHg 43%
    16:00 +34°C° 0 mm 2 mps 747 mmHg 43%
    17:00 +30°C° 0.1 mm 2 mps 747 mmHg 51%
    18:00 +28°C° 0.1 mm 2 mps 747 mmHg 59%
    19:00 +26°C° 0.1 mm 1 mps 747 mmHg 68%
    20:00 +24°C° 1.3 mm 1 mps 747 mmHg 74%
    21:00 +23°C° 1.3 mm 1 mps 748 mmHg 81%
    22:00 +22°C° 1.3 mm 1 mps 748 mmHg 88%
    23:00 +20°C° 0 mm 0 mps 748 mmHg 87%
    Show more